Location: A�t Ali Ou Rhanem
(32.8224°N, 5.2341°W)
Time: 07:18:58
(UTC+00:00)

Daily predictions for brighter satellites

Satellite Brightness Start Highest point End
(mag) Time Altitude Azimuth Time Altitude Azimuth Time Altitude Azimuth
SMAP 3.2 17:35:22 10° SSE 17:39:53 53° ENE 17:44:25 10° N
Cosmos 2369 Rocket 3.6 17:36:31 10° NNE 17:39:55 16° ENE 17:43:19 10° E
STARLINK-53 4.1 17:36:14 10° SSW 17:40:03 44° SE 17:43:53 10° ENE
STARLINK-54 4.0 17:37:51 10° SSW 17:41:42 47° SE 17:45:34 10° NE
SL-16 R/B 3.3 17:37:25 10° SW 17:42:50 46° WNW 17:48:18 10° N
Cosmos 1743 3.3 17:39:47 10° NNE 17:43:21 35° E 17:46:55 10° SSE
Cosmos 1092 Rocket 4.4 17:37:14 10° SSW 17:43:31 73° W 17:49:45 10° N
STARLINK-34 3.9 17:41:06 10° SSW 17:45:00 51° SE 17:48:54 10° NE
STARLINK-61 3.6 17:43:34 10° SW 17:47:33 84° NW 17:51:35 10° NE
STARLINK-81 3.9 17:44:15 10° SSW 17:48:07 49° SE 17:52:00 10° NE
COSMO-SKYMED 1 3.5 17:44:39 10° NE 17:48:27 29° E 17:52:14 10° SSE
STARLINK-24 3.7 17:46:01 10° SSW 17:49:56 57° SE 17:53:54 10° NE
Cosmos 1603 4.0 17:44:55 10° S 17:50:24 51° ESE 17:55:57 10° NNE
Cosmos 921 Rocket 3.0 17:46:23 10° N 17:50:45 74° ENE 17:55:08 10° SSE
STARLINK-77 3.8 17:47:30 10° SSW 17:51:24 53° SE 17:55:20 10° NE
Meteor 1-18 Rocket 4.2 17:46:52 10° S 17:52:34 76° E 17:58:11 10° NNE
STARLINK-25 3.8 17:49:08 10° SSW 17:53:03 56° SE 17:56:57 10° NE
OAO 2 Rocket 3.7 17:49:37 10° W 17:54:31 64° SSW 17:59:29 10° ESE
Cosmos 1943 Rocket 3.1 17:50:06 10° N 17:54:43 25° ENE 17:59:15 10° ESE
STARLINK-71 3.6 17:50:56 10° SW 17:54:54 67° SE 17:58:49 10° NE
Cosmos 1655 Rocket 4.4 17:49:24 10° SSE 17:55:17 43° E 18:01:08 10° NNE
STARLINK-79 3.7 17:52:23 10° SSW 17:56:21 61° SE 18:00:08 11° NE
Okean-O 3.0 17:53:11 10° SE 17:57:20 41° ENE 18:01:30 10° N
STARLINK-78 3.6 17:54:04 10° SSW 17:58:02 65° SE 18:01:46 12° NE
Sakura Rocket 4.1 17:53:48 10° W 17:58:05 50° S 18:03:51 10° ESE
STARLINK-57 3.5 17:55:47 10° SW 17:59:46 72° SE 18:03:28 12° NE
STARLINK-49 3.6 17:57:19 10° SW 18:01:18 70° SE 18:04:55 12° NE
OAO 3 Copernicus 4.4 17:56:54 10° W 18:01:58 70° N 18:06:27 13° ENE
STARLINK-27 3.5 17:58:58 10° SW 18:02:57 73° SE 18:06:30 13° NE
STARLINK-74 3.5 18:00:36 10° SW 18:04:36 76° SE 18:08:05 13° NE
STARLINK-39 3.5 18:02:16 10° SW 18:06:17 80° SE 18:09:42 14° NE
Feng Yun 1-1 Rocket 4.3 18:01:02 10° SSE 18:06:25 82° WSW 18:11:51 10° NNW
NOAA 12 4.1 18:01:53 10° SSE 18:07:06 63° ENE 18:12:19 10° N
Cosmos 1461 2.9 18:03:29 10° S 18:07:16 51° ESE 18:10:37 13° NE
STARLINK 3.5 18:03:54 10° SW 18:07:55 83° SE 18:11:17 14° NE
Aureole 3 Rocket 3.6 18:05:28 10° NNE 18:08:05 23° E 18:11:04 10° SE
STARLINK-42 3.5 18:05:40 10° SW 18:09:40 89° NW 18:13:01 15° NE
STARLINK-21 3.5 18:07:15 10° SW 18:11:16 90° NNW 18:14:30 15° NE
STARLINK-45 3.6 18:09:05 10° SW 18:13:06 76° NW 18:16:21 15° NE
STARLINK-75 3.7 18:10:53 10° SW 18:14:53 69° NW 18:18:06 15° NE
STARLINK-76 3.6 18:12:12 10° SW 18:16:12 80° NW 18:19:16 17° NE
STARLINK 3.6 18:13:50 10° SW 18:17:51 76° NW 18:20:51 17° NE
Cosmos 405 Rocket 3.2 18:14:32 10° NNE 18:17:56 33° E 18:21:23 10° SE
Meteor 2-4 Rocket 3.8 18:12:39 10° S 18:18:25 59° E 18:24:04 10° NNE
STARLINK-32 3.7 18:15:30 10° SW 18:19:30 73° NW 18:22:26 18° NE
Cosmos 2266 Rocket 4.3 18:14:28 10° SSE 18:20:32 46° E 18:26:34 10° NNE
STARLINK-40 3.7 18:17:10 10° SW 18:21:09 71° NW 18:24:01 18° NE
STARLINK-44 3.7 18:18:49 10° SW 18:22:48 68° NW 18:25:37 19° NE
H-2A R/B 4.1 18:19:38 10° S 18:23:06 40° W 18:26:35 10° NNW
YAOGAN 6 2.7 18:20:01 10° SSE 18:23:25 48° ENE 18:26:54 10° N
STARLINK-37 3.9 18:20:37 10° SW 18:24:34 61° NW 18:27:21 19° NNE
STARLINK-36 3.8 18:21:58 10° SW 18:25:57 63° NW 18:28:38 20° NNE
S3M 4.0 18:21:04 10° N 18:27:06 56° E 18:33:04 10° SSE
STARLINK-41 3.9 18:23:47 10° SW 18:27:45 61° NW 18:30:21 20° NNE
Cosmos 2151 Rocket 3.9 18:23:51 10° N 18:28:00 40° E 18:32:07 10° SSE
Cosmos 1867 3.5 18:23:27 10° NNW 18:28:56 88° ENE 18:34:20 10° SSE
STARLINK-64 3.9 18:25:28 10° SW 18:29:24 58° NW 18:31:56 21° NNE
STARLINK-35 4.0 18:27:08 10° WSW 18:31:05 55° NW 18:33:34 21° NNE
STARLINK-51 4.1 18:28:49 10° WSW 18:32:45 53° NW 18:35:10 21° NNE
STARLINK-30 4.2 18:30:30 10° WSW 18:34:24 51° NW 18:36:46 22° NNE
STARLINK-33 4.2 18:32:07 10° WSW 18:36:01 49° NW 18:38:19 22° NNE
SKYMED 2 3.8 18:32:16 10° N 18:36:36 69° WNW 18:40:54 10° SSW
Cosmos 1553 Rocket 4.1 18:30:10 10° N 18:36:37 88° W 18:43:01 10° S
Cosmos 1515 4.2 18:32:57 10° SSW 18:36:39 58° W 18:40:24 10° N
OAO 3 Rocket 4.0 18:32:35 10° W 18:37:05 47° SSW 18:41:16 12° SE
STARLINK-50 4.3 18:33:50 10° WSW 18:37:43 47° NW 18:39:56 23° NNE
STARLINK 4.1 18:35:12 10° WSW 18:39:07 52° NW 18:41:12 25° NNE
Cosmos 2084 Rocket 3.6 18:35:00 10° SW 18:39:21 73° WNW 18:42:10 22° NNE
STARLINK-56 4.4 18:37:13 10° WSW 18:41:03 44° NW 18:43:07 23° NNE
Cosmos 1544 3.1 18:37:48 10° N 18:41:21 50° E 18:44:52 10° SSE
Starlink (trailer) 4.5 18:38:53 10° WSW 18:42:42 42° NW 18:44:43 24° NNE
CZ-4 R/B 1.1 18:42:16 10° SSE 18:46:08 71° ENE 18:49:58 10° N
Delta 128 4.4 18:41:24 10° WSW 18:46:32 47° S 18:48:42 28° ESE
Uosat 12 SS-18 rocket 3.9 18:43:05 10° NNW 18:47:29 60° ENE 18:50:05 22° SE
USA 116 4.2 18:43:50 10° NNE 18:48:56 88° WNW 18:53:30 10° SSW
IRIDIUM 104 4.2 18:43:45 10° S 18:48:57 84° E 18:54:11 10° N
USA 267 3.4 18:45:12 20° ESE 18:49:40 52° NE 18:55:57 10° NNW
Cosmos 2263 4.4 18:45:36 10° N 18:51:10 47° ENE 18:56:41 10° SE
CZ-4C R/B 3.0 18:46:38 10° SW 18:51:12 41° NW 18:55:39 14° NNE
Okean 2 Rocket 3.8 18:49:43 10° NNW 18:54:08 57° W 18:58:32 10° S
Cosmos 405 2.9 18:51:49 10° S 18:55:21 84° WNW 18:56:15 48° N
Envisat 4.1 18:51:34 10° S 18:56:25 46° W 19:01:18 10° NNW
SEDSat Delta rocket 4.3 18:51:10 10° WSW 18:57:38 58° SSE 19:00:27 34° ESE
IRIDIUM 114 4.4 18:52:54 10° S 18:58:06 79° W 19:03:20 10° N
NOAA 11 4.1 18:55:21 10° SSE 19:00:40 59° ENE 19:06:04 10° N
CZ-3C R/B 4.3 18:56:25 10° SW 19:01:12 35° SSE 19:12:47 19° ESE
NOSS 3-1 (C) 4.2 18:53:51 10° NNW 19:01:31 53° NE 19:08:34 16° SE
Cosmos 1741 Rocket 4.5 18:57:09 10° SSW 19:02:19 59° WNW 19:06:31 16° N
Cosmos 1943 4.2 19:00:26 10° SW 19:05:48 45° WNW 19:10:43 12° N
Cosmos 1674 Rocket 4.1 19:03:35 10° SSW 19:07:56 58° W 19:11:05 18° N
Cosmos 468 Rocket 3.9 19:04:38 10° N 19:09:47 59° ENE 19:09:59 59° E
Meteor 2-8 Rocket 4.3 19:05:17 10° N 19:11:18 65° E 19:17:19 10° SSE
Delta 2 Rocket 3.5 19:06:09 10° WNW 19:11:21 75° N 19:11:38 72° NE
Cosmos 883 Rocket 4.3 19:06:22 10° N 19:12:40 79° E 19:18:53 10° S
Lacrosse 5 4.0 19:09:34 10° W 19:13:11 19° NW 19:15:41 14° N
USA 229 DEB 3.8 19:06:04 10° NNW 19:13:22 62° ENE 19:17:28 29° SE
USA 229 3.8 19:06:11 10° NNW 19:13:28 62° ENE 19:17:23 30° SE
USA 81 4.2 19:08:16 10° S 19:13:32 72° W 19:18:33 11° N
NOSS 2-1 (C) 3.7 19:11:13 10° SW 19:14:24 52° W 19:14:24 52° W
NOSS 2-1 (D) 4.0 19:14:57 10° SW 19:18:00 45° W 19:18:00 45° W
Cosmos 2315 Rocket 3.8 19:12:13 10° N 19:18:29 69° E 19:24:40 10° SSE
NOSS 3-1 (A) 4.3 19:11:34 10° NNW 19:19:05 46° NE 19:19:54 45° ENE
YAOGAN 1 3.1 19:15:10 10° S 19:19:25 58° W 19:23:41 10° NNW
Cosmos 1378 Rocket 4.1 19:18:57 10° SSW 19:23:09 54° W 19:24:15 42° NNW
Cosmos 2369 Rocket 2.6 19:18:46 10° NNW 19:24:20 61° WSW 19:29:54 10° S
CZ-3B R/B 2.2 19:24:14 10° WSW 19:28:17 45° S 19:28:22 45° SSE
Nadezhda 2 Rocket 4.4 19:29:22 10° S 19:35:42 90° E 19:37:05 58° N
Meteor 1-23 Rocket 4.5 19:32:17 10° SSW 19:38:00 69° W 19:39:42 46° NNW
Cosmos 1943 Rocket 3.6 19:33:25 10° NW 19:38:26 35° WSW 19:43:25 10° SSW
ADEOS Rocket 3.6 19:56:24 45° SSW 19:56:24 45° SSW 20:00:18 10° SSW
ATLAS 3B CENTAUR R/B 4.0 20:00:08 10° SW 20:07:35 53° SSE 20:08:25 52° SE
USA 267 4.4 20:32:37 37° SW 20:32:41 37° SW 20:38:38 10° WNW
